Location: Antioch Baptist Church
(32.7160°N, 96.7483°W)
Time: 18:10:58
(UTC+00:00)

Cosmos 1943 - Pass Details

Date: 05 December 2023
Orbit: 831 x 850 km, 71.0° (Epoch: 21 February)

Event Time Altitude Azimuth Distance (km) Brightness Sun altitude
Rises 23:43:36 0° 349° (NNW) 3,388 6.2 -5.2°
Reaches altitude 10° 23:46:14 10° 357° (N) 2,453 5.4 -5.7°
Maximum altitude 23:51:25 37° 64° (ENE) 1,283 3.7 -6.7°
Drops below altitude 10° 23:56:35 10° 131° (SE) 2,454 5.4 -7.7°
Sets 23:59:13 0° 140° (SE) 3,389 6.1 -8.3°
